Aurora, South Dakota
Current Conditions -  °F | °C
As of 3:15 AM on Friday 24 Oct 2014 (Local Time) from KMDS Reporting Station
Clear Clear  
Wind Chill: 42°   Ceiling: Unl
Heat Index: 46°   Visibility: 10mi
Dew Point: 46°   Wind: 8mph
Humidity: 100%   Direction: 180°S
Pressure: 29.86"   Gusts: NA
Location:  44.28°N, 96.69°W
Report Text: KMDS 240815Z AUTO 18007KT 10SM CLR 08/08 A2986 RMK AO2
Loading
Personal Weather Stations






























Interactive Weather Map
Tropical Storm Tracking
New forecast layout! Learn more

10-Day Weather Forecast

Advertisements
Track Severe Weather on mobile